Location: Saint-Usage
(47.1052°N, 5.2587°E)
Time: 11:32:57
(UTC+01:00)

NOAA 19 - Pass Details

Date: 28 November 2021
Orbit: 841 x 860 km, 99.2° (Epoch: 23 January)

Event Time Altitude Azimuth Distance (km) Brightness Sun altitude
Rises 19:03:33 0° 160° (SSE) 3,383 8.2 -21.6°
Reaches altitude 10° 19:05:53 10° 159° (SSE) 2,453 7.5 -22.0°
Maximum altitude 19:11:19 81° 73° (ENE) 858 5.0 -22.9°
Drops below altitude 10° 19:16:49 10° 347° (NNW) 2,474 7.7 -23.8°
Sets 19:19:11 0° 346° (NNW) 3,415 8.5 -24.2°
